BREEZE-KM DEB, 41723

Orbit data source: Space-Track

BREEZE-KM DEB, 41723 is space debris in LEO originally from a launch on Tue, 31 Mar 2015 UTC launched from the Plesetsk Missile And Space Complex (PKMTR). Debris objects in space refer to the collection of defunct objects orbiting the Earth. Examples of debris include non-operational satellites, rocket bodies, and fragments generated from explosions, collisions, or faulty payload assembly.

Loading next visibility...
Identifier
41723, 2015-020L
Orbit
LEO
Country
Flag of CISCIS
Related business
Manufacturer
Khrunichev
Mission
Spacecraft
Bus & Motor
Unknown
Mass
Unknown
Launch date (UTC)
2015-03-31 (11 years ago)
Launch vehicle
Unknown
Launch site
Plesetsk Missile And Space Complex (PKMTR)
Object type
Payload
Rocket body
Debris
Shape & HBR
Unknown shape, 0.1 m
Radar Cross Section
Small (<0.1 m²)

Expand to show TLE details & history
Last TLE update: 3 days ago

TLE from 3 days ago
0 BREEZE-KM DEB
1 41723U 15020L   25304.75190633  .00000299  00000-0  94094-3 0  9992
2 41723  82.4836 304.5481 0222924  50.1614 311.8876 12.92821766469819
Epoch: 2025-10-31T18:02Z
TLE epoch observation values (Epoch: 2025-10-31T18:02:44.706Z)
Latitude
-0.00005°
Longitude
-6.43002°
Altitude
1,181.118 km
Speed
7.316 km/s
True Right ascension
20h 18m 11s
True Declination
0° 00' 00"
Sunlit
Object was in daylight at epoch
Visualization orbit readout
Latitude
Unknown
Longitude
Unknown
Altitude
Unknown
Speed
Unknown
Apparent Right ascension
Unknown
Apparent Declination
Unknown
Sunlit
N/A
Visualization observer readout
Local Sidereal Time
08:31:59
Azimuth
Unknown
Elevation
Unknown
Doppler factor
Unknown
Orbital elements
Apogee altitude
1,458.512 km
Perigee altitude
1,116.736 km
Semi-major axis
7,665.761 km
Eccentricity
0.02229
Inclination
82.4836°
RAAN
304.5481°
Arg. of periapsis
50.1614°
True anomaly
309.95022°
Mean anomaly
311.8876°
Eccentric anomaly
310.92251°
Mean motion
3.23378 °/min
Orbital period
111.32 mins
BSTAR
0.00094094
Loading maneuver chart data...
Computing Atmospheric mass density...
Loading historical data...
Loading historical data...
Loading historical data...
Loading historical data...
Loading historical data...
Loading historical data...
Loading historical data...

Documentation

Showing up to 5 results
|